When you browse on this site, cookies collect data to enhance your experience and personalize the content and advertising you see.
Visit our Privacy Policy to learn more. By continuing to use the site, you agree to this use of cookies and data.
  • In Netherlands
  • List of Countries
  • For 7 days
  • Water Temperature
  • Weather Map
  • Weather Widgets
  • user-avatar
    Login

    Hourly Weather Bujumbura

    Today, 20 August, Tuesday

    Time Temperature Precipitation Wind Pressure Humidity
    00:00 +25°C° 0 mm 1 mps 693 mmHg 59%
    01:00 +25°C° 0 mm 1 mps 692 mmHg 60%
    02:00 +24°C° 0 mm 1 mps 692 mmHg 59%
    03:00 +24°C° 0 mm 1 mps 692 mmHg 60%
    04:00 +24°C° 0 mm 1 mps 692 mmHg 61%
    05:00 +23°C° 0 mm 1 mps 692 mmHg 62%
    06:00 +25°C° 0 mm 1 mps 693 mmHg 56%
    07:00 +27°C° 0 mm 1 mps 694 mmHg 51%
    08:00 +29°C° 0 mm 1 mps 694 mmHg 45%
    09:00 +30°C° 0 mm 2 mps 694 mmHg 43%
    10:00 +31°C° 0 mm 3 mps 694 mmHg 41%
    11:00 +34°C° 0 mm 4 mps 694 mmHg 39%
    12:00 +34°C° 0 mm 4 mps 694 mmHg 37%
    13:00 +34°C° 0 mm 4 mps 693 mmHg 34%
    14:00 +35°C° 0 mm 4 mps 692 mmHg 32%
    15:00 +34°C° 0 mm 4 mps 692 mmHg 34%
    16:00 +33°C° 0 mm 3 mps 691 mmHg 36%
    17:00 +31°C° 0 mm 3 mps 691 mmHg 38%
    18:00 +29°C° 0 mm 3 mps 691 mmHg 42%
    19:00 +27°C° 0 mm 2 mps 692 mmHg 46%
    20:00 +26°C° 0 mm 2 mps 692 mmHg 51%
    21:00 +25°C° 0 mm 2 mps 693 mmHg 51%
    22:00 +25°C° 0 mm 1 mps 693 mmHg 51%
    23:00 +25°C° 0 mm 1 mps 694 mmHg 51%

    Tomorrow, 21 August, Wednesday

    Time Temperature Precipitation Wind Pressure Humidity
    00:00 +24°C° 0 mm 1 mps 693 mmHg 51%
    01:00 +24°C° 0 mm 1 mps 693 mmHg 52%
    02:00 +24°C° 0 mm 1 mps 692 mmHg 52%
    03:00 +24°C° 0 mm 1 mps 692 mmHg 52%
    04:00 +23°C° 0 mm 1 mps 693 mmHg 53%
    05:00 +23°C° 0 mm 1 mps 693 mmHg 54%
    06:00 +24°C° 0 mm 2 mps 693 mmHg 50%
    07:00 +26°C° 0 mm 2 mps 694 mmHg 46%
    08:00 +27°C° 0 mm 2 mps 694 mmHg 41%
    09:00 +29°C° 0 mm 3 mps 695 mmHg 38%
    10:00 +30°C° 0 mm 3 mps 695 mmHg 35%
    11:00 +33°C° 0 mm 3 mps 695 mmHg 32%
    12:00 +33°C° 0 mm 4 mps 694 mmHg 32%
    13:00 +34°C° 0 mm 4 mps 693 mmHg 31%
    14:00 +34°C° 0 mm 4 mps 692 mmHg 31%
    15:00 +33°C° 0 mm 4 mps 692 mmHg 33%
    16:00 +33°C° 0 mm 4 mps 691 mmHg 35%
    17:00 +32°C° 0 mm 4 mps 691 mmHg 37%
    18:00 +29°C° 0 mm 3 mps 692 mmHg 41%
    19:00 +28°C° 0 mm 3 mps 692 mmHg 45%
    20:00 +26°C° 0 mm 2 mps 692 mmHg 49%
    21:00 +26°C° 0 mm 2 mps 693 mmHg 49%
    22:00 +26°C° 0 mm 2 mps 693 mmHg 49%
    23:00 +26°C° 0 mm 1 mps 693 mmHg 49%

    Day after tomorrow, 22 August, Thursday

    Time Temperature Precipitation Wind Pressure Humidity
    00:00 +25°C° 0 mm 1 mps 693 mmHg 50%
    01:00 +25°C° 0 mm 1 mps 692 mmHg 52%
    02:00 +24°C° 0 mm 1 mps 692 mmHg 53%
    03:00 +24°C° 0 mm 1 mps 692 mmHg 53%
    04:00 +24°C° 0 mm 1 mps 692 mmHg 52%
    05:00 +25°C° 0 mm 1 mps 693 mmHg 51%
    06:00 +25°C° 0 mm 2 mps 693 mmHg 49%
    07:00 +26°C° 0 mm 2 mps 694 mmHg 46%
    08:00 +27°C° 0 mm 2 mps 695 mmHg 44%
    09:00 +29°C° 0 mm 3 mps 695 mmHg 41%
    10:00 +30°C° 0 mm 3 mps 695 mmHg 39%
    11:00 +33°C° 0 mm 4 mps 695 mmHg 36%
    12:00 +33°C° 0 mm 4 mps 694 mmHg 36%
    13:00 +33°C° 0 mm 4 mps 693 mmHg 36%
    14:00 +33°C° 0 mm 5 mps 692 mmHg 35%
    15:00 +33°C° 0 mm 4 mps 691 mmHg 36%
    16:00 +32°C° 0 mm 4 mps 691 mmHg 37%
    17:00 +32°C° 0 mm 4 mps 691 mmHg 39%
    18:00 +29°C° 0 mm 3 mps 692 mmHg 43%
    19:00 +28°C° 0 mm 3 mps 692 mmHg 47%
    20:00 +26°C° 0 mm 2 mps 693 mmHg 51%
    21:00 +26°C° 0 mm 2 mps 693 mmHg 51%
    22:00 +25°C° 0 mm 1 mps 693 mmHg 51%
    23:00 +25°C° 0 mm 1 mps 693 mmHg 51%

    23 August, Friday

    Time Temperature Precipitation Wind Pressure Humidity
    00:00 +25°C° 0 mm 1 mps 693 mmHg 50%
    01:00 +25°C° 0 mm 1 mps 692 mmHg 50%
    02:00 +25°C° 0 mm 1 mps 692 mmHg 50%
    03:00 +25°C° 0 mm 1 mps 692 mmHg 49%
    04:00 +25°C° 0 mm 1 mps 692 mmHg 49%
    05:00 +24°C° 0 mm 0 mps 692 mmHg 49%
    06:00 +24°C° 0 mm 0 mps 693 mmHg 47%
    07:00 +27°C° 0 mm 1 mps 694 mmHg 46%
    08:00 +27°C° 0 mm 1 mps 695 mmHg 45%
    09:00 +29°C° 0 mm 2 mps 694 mmHg 42%
    10:00 +31°C° 0 mm 3 mps 694 mmHg 39%
    11:00 +34°C° 0 mm 3 mps 694 mmHg 37%
    12:00 +34°C° 0 mm 3 mps 693 mmHg 36%
    13:00 +34°C° 0 mm 3 mps 693 mmHg 35%
    14:00 +34°C° 0 mm 3 mps 692 mmHg 34%
    15:00 +33°C° 0 mm 3 mps 691 mmHg 36%
    16:00 +33°C° 0 mm 3 mps 691 mmHg 37%
    17:00 +32°C° 0 mm 4 mps 691 mmHg 38%
    18:00 +30°C° 0 mm 3 mps 692 mmHg 42%
    19:00 +28°C° 0 mm 3 mps 692 mmHg 45%
    20:00 +27°C° 0 mm 2 mps 693 mmHg 49%
    21:00 +26°C° 0 mm 2 mps 693 mmHg 49%
    22:00 +26°C° 0 mm 2 mps 693 mmHg 49%
    23:00 +26°C° 0 mm 1 mps 693 mmHg 49%

    24 August, Saturday

    Time Temperature Precipitation Wind Pressure Humidity
    00:00 +26°C° 0 mm 1 mps 693 mmHg 49%
    01:00 +25°C° 0 mm 1 mps 692 mmHg 49%
    02:00 +25°C° 0 mm 1 mps 692 mmHg 49%
    03:00 +25°C° 0 mm 1 mps 692 mmHg 51%
    04:00 +24°C° 0 mm 1 mps 692 mmHg 52%
    05:00 +24°C° 0 mm 1 mps 693 mmHg 53%
    06:00 +25°C° 0 mm 1 mps 693 mmHg 49%
    07:00 +26°C° 0 mm 2 mps 694 mmHg 44%
    08:00 +28°C° 0 mm 2 mps 695 mmHg 40%
    09:00 +29°C° 0 mm 3 mps 695 mmHg 39%
    10:00 +30°C° 0 mm 3 mps 694 mmHg 37%
    11:00 +31°C° 0 mm 3 mps 694 mmHg 36%
    12:00 +33°C° 0 mm 3 mps 693 mmHg 35%
    13:00 +33°C° 0 mm 4 mps 692 mmHg 34%
    14:00 +34°C° 0 mm 4 mps 692 mmHg 34%
    15:00 +33°C° 0 mm 3 mps 691 mmHg 36%
    16:00 +31°C° 0 mm 3 mps 691 mmHg 39%
    17:00 +30°C° 0 mm 3 mps 691 mmHg 41%
    18:00 +29°C° 0 mm 3 mps 691 mmHg 44%
    19:00 +28°C° 0 mm 2 mps 692 mmHg 48%
    20:00 +27°C° 0 mm 2 mps 693 mmHg 51%
    21:00 +27°C° 0 mm 2 mps 693 mmHg 50%
    22:00 +27°C° 0 mm 1 mps 693 mmHg 49%
    23:00 +27°C° 0 mm 1 mps 694 mmHg 48%

    25 August, Sunday

    Time Temperature Precipitation Wind Pressure Humidity
    00:00 +26°C° 0 mm 1 mps 693 mmHg 49%
    01:00 +26°C° 0 mm 1 mps 693 mmHg 49%
    02:00 +26°C° 0 mm 1 mps 693 mmHg 49%
    03:00 +25°C° 0 mm 1 mps 693 mmHg 51%
    04:00 +25°C° 0 mm 1 mps 693 mmHg 52%
    05:00 +24°C° 0 mm 2 mps 694 mmHg 54%
    06:00 +25°C° 0 mm 1 mps 694 mmHg 53%
    07:00 +26°C° 0 mm 1 mps 695 mmHg 52%
    08:00 +27°C° 0 mm 1 mps 695 mmHg 50%
    09:00 +28°C° 0 mm 1 mps 695 mmHg 47%
    10:00 +30°C° 0 mm 2 mps 695 mmHg 43%
    11:00 +32°C° 0 mm 2 mps 694 mmHg 39%
    12:00 +32°C° 0 mm 2 mps 693 mmHg 40%
    13:00 +33°C° 0 mm 3 mps 692 mmHg 40%
    14:00 +33°C° 0 mm 3 mps 692 mmHg 40%
    15:00 +31°C° 0 mm 3 mps 691 mmHg 44%
    16:00 +30°C° 0 mm 3 mps 691 mmHg 48%
    17:00 +29°C° 0 mm 3 mps 691 mmHg 51%
    18:00 +28°C° 0 mm 3 mps 692 mmHg 55%
    19:00 +27°C° 0 mm 2 mps 692 mmHg 58%
    20:00 +26°C° 0 mm 2 mps 693 mmHg 62%
    21:00 +26°C° 0 mm 2 mps 693 mmHg 62%
    22:00 +26°C° 0 mm 2 mps 693 mmHg 63%
    23:00 +25°C° 0 mm 1 mps 694 mmHg 63%
    Show more